Stündliche Wetter Barnowiec

Heute, 30 Oktober, Freitag

Zeit Temperatur Niederschläge Wind Luftdruck Luftfeuchtigkeit
00:00 +7°C° 0.6 mm 5 m/S 747 mmHg 85%
01:00 +7°C° 0 mm 5 m/S 747 mmHg 86%
02:00 +7°C° 0.1 mm 4 m/S 747 mmHg 88%
03:00 +7°C° 0.1 mm 4 m/S 747 mmHg 89%
04:00 +6°C° 0.1 mm 4 m/S 747 mmHg 91%
05:00 +6°C° 0 mm 4 m/S 748 mmHg 91%
06:00 +6°C° 0 mm 4 m/S 748 mmHg 92%
07:00 +6°C° 0 mm 4 m/S 748 mmHg 92%
08:00 +7°C° 0 mm 3 m/S 748 mmHg 89%
09:00 +8°C° 0 mm 3 m/S 748 mmHg 85%
10:00 +8°C° 0 mm 3 m/S 748 mmHg 82%
11:00 +9°C° 0 mm 3 m/S 748 mmHg 79%
12:00 +9°C° 0 mm 2 m/S 748 mmHg 77%
13:00 +10°C° 0 mm 2 m/S 748 mmHg 74%
14:00 +9°C° 0.1 mm 2 m/S 748 mmHg 78%
15:00 +9°C° 0.1 mm 2 m/S 748 mmHg 82%
16:00 +8°C° 0.1 mm 2 m/S 748 mmHg 86%
17:00 +8°C° 0.3 mm 2 m/S 748 mmHg 88%
18:00 +8°C° 0.3 mm 2 m/S 748 mmHg 90%
19:00 +8°C° 0.3 mm 2 m/S 749 mmHg 92%
20:00 +9°C° 0.1 mm 1 m/S 749 mmHg 92%
21:00 +9°C° 0.1 mm 1 m/S 750 mmHg 93%
22:00 +9°C° 0.1 mm 1 m/S 750 mmHg 94%
23:00 +9°C° 0 mm 1 m/S 750 mmHg 94%

Morgen, 31 Oktober, Samstag

Zeit Temperatur Niederschläge Wind Luftdruck Luftfeuchtigkeit
00:00 +8°C° 0 mm 1 m/S 751 mmHg 94%
01:00 +7°C° 0 mm 0 m/S 751 mmHg 94%
02:00 +8°C° 0 mm 1 m/S 751 mmHg 94%
03:00 +8°C° 0 mm 1 m/S 752 mmHg 94%
04:00 +7°C° 0 mm 1 m/S 752 mmHg 93%
05:00 +7°C° 0 mm 1 m/S 753 mmHg 93%
06:00 +7°C° 0 mm 1 m/S 753 mmHg 92%
07:00 +7°C° 0 mm 1 m/S 753 mmHg 92%
08:00 +7°C° 0 mm 2 m/S 754 mmHg 87%
09:00 +8°C° 0 mm 2 m/S 754 mmHg 82%
10:00 +9°C° 0 mm 2 m/S 754 mmHg 77%
11:00 +10°C° 0 mm 2 m/S 754 mmHg 74%
12:00 +12°C° 0 mm 2 m/S 754 mmHg 72%
13:00 +13°C° 0 mm 2 m/S 754 mmHg 69%
14:00 +12°C° 0 mm 2 m/S 754 mmHg 73%
15:00 +10°C° 0 mm 2 m/S 754 mmHg 77%
16:00 +10°C° 0 mm 2 m/S 754 mmHg 80%
17:00 +9°C° 0 mm 2 m/S 754 mmHg 82%
18:00 +9°C° 0 mm 3 m/S 754 mmHg 84%
19:00 +8°C° 0 mm 3 m/S 754 mmHg 86%
20:00 +8°C° 0 mm 3 m/S 754 mmHg 85%
21:00 +7°C° 0 mm 4 m/S 754 mmHg 85%
22:00 +6°C° 0 mm 4 m/S 754 mmHg 85%
23:00 +6°C° 0 mm 4 m/S 753 mmHg 84%

übermorgen, 1 November, Sonntag

Zeit Temperatur Niederschläge Wind Luftdruck Luftfeuchtigkeit
00:00 +6°C° 0 mm 4 m/S 753 mmHg 83%
01:00 +6°C° 0 mm 5 m/S 753 mmHg 82%
02:00 +6°C° 0 mm 5 m/S 753 mmHg 81%
03:00 +6°C° 0 mm 5 m/S 752 mmHg 80%
04:00 +6°C° 0 mm 5 m/S 752 mmHg 80%
05:00 +6°C° 0 mm 5 m/S 752 mmHg 79%
06:00 +6°C° 0 mm 5 m/S 752 mmHg 78%
07:00 +6°C° 0 mm 5 m/S 751 mmHg 78%
08:00 +7°C° 0 mm 6 m/S 751 mmHg 75%
09:00 +8°C° 0 mm 6 m/S 751 mmHg 72%
10:00 +8°C° 0 mm 6 m/S 750 mmHg 69%
11:00 +9°C° 0 mm 6 m/S 750 mmHg 68%
12:00 +9°C° 0 mm 6 m/S 749 mmHg 68%
13:00 +10°C° 0 mm 6 m/S 749 mmHg 68%
14:00 +9°C° 0 mm 6 m/S 748 mmHg 70%
15:00 +9°C° 0 mm 5 m/S 748 mmHg 73%
16:00 +9°C° 0 mm 5 m/S 747 mmHg 75%
17:00 +9°C° 0 mm 5 m/S 747 mmHg 77%
18:00 +9°C° 0 mm 5 m/S 747 mmHg 80%
19:00 +9°C° 0 mm 5 m/S 747 mmHg 83%
20:00 +9°C° 0.3 mm 5 m/S 746 mmHg 86%
21:00 +9°C° 0.3 mm 5 m/S 746 mmHg 89%
22:00 +10°C° 0.3 mm 5 m/S 746 mmHg 92%
23:00 +10°C° 0.1 mm 5 m/S 745 mmHg 92%

2 November, Montag

Zeit Temperatur Niederschläge Wind Luftdruck Luftfeuchtigkeit
00:00 +10°C° 0.1 mm 5 m/S 745 mmHg 92%
01:00 +10°C° 0.1 mm 5 m/S 745 mmHg 92%
02:00 +10°C° 0 mm 5 m/S 745 mmHg 93%
03:00 +10°C° 0 mm 5 m/S 745 mmHg 93%
04:00 +10°C° 0 mm 5 m/S 745 mmHg 93%
05:00 +12°C° 0.1 mm 5 m/S 745 mmHg 93%
06:00 +12°C° 0.1 mm 5 m/S 744 mmHg 94%
07:00 +12°C° 0.1 mm 4 m/S 744 mmHg 94%
08:00 +12°C° 0 mm 5 m/S 744 mmHg 93%
09:00 +13°C° 0 mm 6 m/S 744 mmHg 91%
10:00 +13°C° 0 mm 6 m/S 744 mmHg 89%
11:00 +13°C° 0.9 mm 6 m/S 744 mmHg 90%
12:00 +14°C° 0.9 mm 6 m/S 744 mmHg 91%
13:00 +14°C° 0.9 mm 6 m/S 744 mmHg 93%
14:00 +14°C° 0.3 mm 6 m/S 744 mmHg 92%
15:00 +14°C° 0.3 mm 6 m/S 743 mmHg 91%
16:00 +14°C° 0.3 mm 5 m/S 743 mmHg 90%
17:00 +15°C° 0 mm 5 m/S 743 mmHg 90%
18:00 +15°C° 0 mm 5 m/S 744 mmHg 90%
19:00 +15°C° 0 mm 5 m/S 744 mmHg 90%
20:00 +15°C° 0 mm 5 m/S 744 mmHg 89%
21:00 +15°C° 0 mm 5 m/S 743 mmHg 89%
22:00 +15°C° 0 mm 5 m/S 743 mmHg 88%
23:00 +15°C° 0 mm 5 m/S 743 mmHg 88%

3 November, Dienstag

Zeit Temperatur Niederschläge Wind Luftdruck Luftfeuchtigkeit
00:00 +15°C° 0 mm 5 m/S 743 mmHg 87%
01:00 +15°C° 0 mm 5 m/S 743 mmHg 86%
02:00 +15°C° 0 mm 5 m/S 744 mmHg 86%
03:00 +15°C° 0 mm 5 m/S 744 mmHg 85%
04:00 +15°C° 0 mm 5 m/S 744 mmHg 85%
05:00 +14°C° 0 mm 5 m/S 745 mmHg 82%
06:00 +13°C° 0 mm 5 m/S 746 mmHg 78%
07:00 +12°C° 0 mm 5 m/S 747 mmHg 75%
08:00 +12°C° 0 mm 5 m/S 748 mmHg 72%
09:00 +11°C° 0 mm 6 m/S 749 mmHg 69%
10:00 +10°C° 0 mm 6 m/S 750 mmHg 66%
11:00 +10°C° 0 mm 6 m/S 750 mmHg 63%
12:00 +10°C° 0 mm 6 m/S 751 mmHg 60%
13:00 +10°C° 0 mm 6 m/S 752 mmHg 57%
14:00 +10°C° 0 mm 5 m/S 752 mmHg 60%
15:00 +10°C° 0 mm 4 m/S 752 mmHg 64%
16:00 +9°C° 0 mm 3 m/S 752 mmHg 67%
17:00 +9°C° 0 mm 3 m/S 753 mmHg 69%
18:00 +8°C° 0 mm 2 m/S 753 mmHg 71%
19:00 +7°C° 0 mm 2 m/S 754 mmHg 73%
20:00 +7°C° 0 mm 2 m/S 754 mmHg 74%
21:00 +7°C° 0 mm 2 m/S 754 mmHg 76%
22:00 +6°C° 0 mm 2 m/S 754 mmHg 77%
23:00 +6°C° 0 mm 2 m/S 755 mmHg 77%

4 November, Mittwoch

Zeit Temperatur Niederschläge Wind Luftdruck Luftfeuchtigkeit
00:00 +6°C° 0 mm 2 m/S 755 mmHg 78%
01:00 +6°C° 0 mm 2 m/S 755 mmHg 78%
02:00 +5°C° 0 mm 3 m/S 755 mmHg 79%
03:00 +5°C° 0 mm 3 m/S 755 mmHg 79%
04:00 +5°C° 0 mm 3 m/S 755 mmHg 80%
05:00 +6°C° 0 mm 2 m/S 756 mmHg 81%
06:00 +6°C° 0 mm 2 m/S 756 mmHg 81%
07:00 +6°C° 0 mm 2 m/S 756 mmHg 81%
08:00 +7°C° 0 mm 2 m/S 757 mmHg 78%
09:00 +7°C° 0 mm 2 m/S 757 mmHg 74%
10:00 +8°C° 0 mm 3 m/S 757 mmHg 70%
11:00 +9°C° 0 mm 3 m/S 758 mmHg 69%
12:00 +9°C° 0 mm 3 m/S 758 mmHg 68%
13:00 +9°C° 0 mm 3 m/S 758 mmHg 66%
14:00 +9°C° 0 mm 2 m/S 759 mmHg 70%
15:00 +8°C° 0 mm 2 m/S 759 mmHg 74%
16:00 +9°C° 0 mm 1 m/S 759 mmHg 77%
17:00 +8°C° 0 mm 1 m/S 760 mmHg 81%
18:00 +6°C° 0 mm 2 m/S 760 mmHg 85%
19:00 +6°C° 0 mm 2 m/S 761 mmHg 88%
20:00 +6°C° 0 mm 2 m/S 761 mmHg 90%
21:00 +5°C° 0 mm 2 m/S 761 mmHg 92%
22:00 +5°C° 0 mm 2 m/S 762 mmHg 94%
23:00 +5°C° 0 mm 2 m/S 762 mmHg 94%
Mehr zeigen